www.pogodaiklimat.ru

Погода и климат >> Архив погоды >> Норвегия >> Гварв


ПОГОДА во Гварве

  • Прогноз погоды во Гварве
  • Монитор погоды во Гварве

АРХИВ ПОГОДЫ во Гварве

Время (UTC), дата Ветер
(напр.,м/с)
 
Видим.   Явления Облачность Т
(С)
Тd
(С)
f
(%)
Тe
(С)
Тes
(С)
Комфортность P
(гПа)
Po
(гПа)
Тmin
(С)
Tmax
(С)
R
(мм)
R24
(мм)
S
(см)
12 11.09 ЮВ 4 н/о н/о +12.7 +10.9 89 +11 +11 1006.0 994.9
13 11.09 ЮВ 4-7
{8}
н/о н/о +12.4 +10.5 88 +10 +10 1005.4 994.3 0.6
14 11.09 Ю 3-5
{8}
н/о н/о +12.4 +10.8 90 +11 +11 1004.8 993.7 2
15 11.09 Ю 2-4
{5}
н/о н/о +12.7 +11.3 91 +12 +12 1003.8 992.8 0.9
16 11.09 Ю 2-4
{6}
н/о н/о +13.4 +11.6 89 +13 +13 1003.5 992.5
17 11.09 ЮЗ 1-1
{3}
н/о н/о +13.4 +11.8 90 +14 +14 1003.3 992.3
18 11.09 СЗ 1-2
{8}
н/о н/о +12.9 +11.6 92 +13 +13 1003.9 992.9
19 11.09 СЗ 1-2
{2}
н/о н/о +11.6 +10.4 92 +11 +11 1004.8 993.7
20 11.09 З 1-2
{3}
н/о н/о +10.9 +9.8 93 +10 +10 1005.5 994.4
21 11.09 З 1-2
{2}
н/о н/о +10.0 +9.1 94 +9 +9 1006.5 995.3
22 11.09 штиль 0-1
{2}
н/о н/о +8.4 +7.5 94 +7 +7 1007.1 995.9
23 11.09 СЗ 1-2
{3}
н/о н/о +7.8 +6.9 94 +7 +7 1008.0 996.7
00 12.09 С 1-3
{3}
н/о н/о +7.3 +6.4 94 +6 +6 1008.7 997.4
01 12.09 СВ 1-2
{3}
н/о н/о +7.0 +6.1 94 +6 +6 1009.5 998.2
02 12.09 В 1-2
{2}
н/о н/о +6.8 +6.1 95 +6 +6 1009.8 998.5
03 12.09 З 1-2
{3}
н/о н/о +6.7 +6.0 95 +6 +6 1010.5 999.1
04 12.09 ЮВ 1-2
{3}
н/о н/о +6.3 +5.6 95 +5 +5 1010.9 999.5
05 12.09 В 1-2
{2}
н/о н/о +6.0 +5.3 95 +5 +5 1011.4 1000.0
06 12.09 С 1-1
{3}
н/о н/о +8.1 +7.3 95 +7 +7 1012.0 1000.7 +5.9 +12.9
07 12.09 В 1-2
{2}
н/о н/о +9.6 +8.8 95 +9 +9 1012.5 1001.2
08 12.09 ЮЗ 1-3
{3}
н/о н/о +10.5 +9.7 95 +10 +10 1013.0 1001.8
09 12.09 ЮВ 2-3
{3}
н/о н/о +13.3 +11.7 90 +13 +13 1013.0 1001.9
10 12.09 З 2-3
{5}
н/о н/о +14.6 +10.6 77 +14 +14 1013.4 1002.3
11 12.09 ЮЗ 2-4
{6}
н/о н/о +16.2 +8.2 59 +16 +16 1013.2 1002.2
12 12.09 Ю 1-3
{6}
н/о н/о +16.8 +8.3 57 +18 +18 1013.2 1002.2
13 12.09 СЗ 1-3
{3}
н/о н/о +17.3 +7.1 51 +18 +18 1013.0 1002.0 0.1
14 12.09 СЗ 3-4
{4}
н/о н/о +16.5 +7.5 55 +16 +16 1013.0 1002.0
15 12.09 ЮЗ 2-4
{5}
н/о н/о +15.8 +7.8 59 +16 +16 1013.2 1002.2
16 12.09 ЮЗ 3-5
{7}
н/о н/о +15.4 +6.7 56 +15 +15 1012.8 1001.8
17 12.09 ЮЗ 2-4
{5}
н/о н/о +14.8 +7.1 60 +15 +15 1013.3 1002.2
18 12.09 ЮЗ 2
{7}
н/о н/о +13.7 +7.0 64 +13 +13 1013.4 1002.3 +19.1 0.1
19 12.09 ЮЗ 1-2
{4}
н/о н/о +12.6 +7.1 69 +13 +13 1013.3 1002.1
20 12.09 Ю 2-4
{4}
н/о н/о +12.4 +6.0 65 +12 +12 1013.4 1002.2
21 12.09 Ю 2-3
{4}
н/о н/о +11.7 +6.2 69 +11 +11 1013.4 1002.2
22 12.09 Ю 2-2
{3}
н/о н/о +10.8 +6.6 75 +10 +10 1013.3 1002.1
23 12.09 СВ 1-1
{3}
н/о н/о +9.7 +6.6 81 +9 +9 1013.5 1002.2
00 13.09 ЮЗ 1-2
{4}
н/о н/о +9.0 +6.1 82 +8 +8 1013.8 1002.5
01 13.09 С 1-2
{3}
н/о н/о +7.0 +5.5 90 +6 +6 1014.2 1002.8
02 13.09 В 1-4
{4}
н/о н/о +6.5 +5.0 90 +5 +5 1014.7 1003.3
03 13.09 СВ 2-3
{4}
н/о н/о +7.3 +5.3 87 +5 +5 1015.0 1003.6
04 13.09 С 1-2
{3}
н/о н/о +7.3 +3.9 79 +6 +6 1015.7 1004.3
05 13.09 СВ 2-3
{3}
н/о н/о +8.7 +4.2 73 +7 +7 1016.6 1005.3
06 13.09 С 1-3
{4}
н/о н/о +8.6 +4.2 74 +8 +8 1017.5 1006.1 +6.5 +13.8
07 13.09 С 1-1
{3}
н/о н/о +11.5 +5.4 66 +12 +12 1017.9 1006.6
08 13.09 З 2-5
{5}
н/о н/о +13.6 +3.4 50 +13 +13 1018.5 1007.3
09 13.09 З 3-7
{7}
н/о н/о +14.9 +2.8 44 +14 +14 1018.8 1007.7
10 13.09 З 5 н/о н/о +15.9 +2.4 40 +15 +15 1019.3 1008.2
11 13.09 З 3 н/о н/о +16.7 +2.0 37 +17 +17 1019.7 1008.6
12 13.09 З 6
{10}
н/о н/о +16.6 +1.9 37 +16 +16 1020.5 1009.4
13 13.09 З 5 н/о н/о +16.6 +1.1 35 +16 +16 1021.0 1009.9
14 13.09 З 4 н/о н/о +16.1 +1.8 38 +16 +16 1021.3 1010.2
15 13.09 З 3 н/о н/о +16.2 +1.9 38 +16 +16 1021.6 1010.5
16 13.09 З 3 н/о н/о +15.2 +2.1 41 +15 +15 1021.6 1010.5
17 13.09 З 3 н/о н/о +13.4 +2.9 49 +12 +12 1022.2 1011.0
18 13.09 З 2
{10}
н/о н/о +12.1 +2.8 53 +11 +11 1022.8 1011.5 +17.0
19 13.09 В 1 н/о н/о +8.1 +3.6 73 +8 +8 1023.5 1012.1
20 13.09 З 2 н/о н/о +9.6 +3.1 64 +8 +8 1024.1 1012.7
21 13.09 ЮЗ 2 н/о н/о +9.5 +1.9 59 +8 +8 1024.5 1013.1
22 13.09 С 1 н/о н/о +6.0 +1.9 75 +5 +5 1024.6 1013.1
23 13.09 ЮВ 2 н/о н/о +6.4 +3.0 79 +4 +4 1024.7 1013.2
00 14.09 З 1
{5}
н/о н/о +5.6 +2.6 81 +4 +4 1025.0 1013.4
01 14.09 Ю 2-4
{4}
н/о н/о +7.0 +4.5 84 +5 +5 1025.2 1013.7
02 14.09 С 1-2
{4}
н/о н/о +6.4 +3.4 81 +5 +5 1025.2 1013.7
03 14.09 СВ 1 н/о н/о +5.1 +3.1 87 +4 +4 1025.3 1013.7
04 14.09 штиль 0-1
{2}
н/о н/о +3.3 +1.5 88 +2 +2 1025.3 1013.6
05 14.09 СЗ 1-2
{3}
н/о н/о +4.2 +2.7 90 +3 +3 1025.3 1013.7
06 14.09 СЗ 2
{4}
н/о н/о +3.7 +2.2 90 +1 +1 1025.4 1013.8 +3.3
07 14.09 З 2 н/о н/о +5.1 +3.1 87 +2 +2 1025.5 1013.9
09 14.09 З 1-2
{2}
н/о н/о +8.3 +5.2 81 +8 +8 1025.0 1013.5
10 14.09 Ю 2-3
{3}
н/о н/о +10.2 +5.8 74 +9 +9 1024.3 1012.9
11 14.09 Ю 3-5
{5}
н/о н/о +13.7 +6.1 60 +13 +13 1023.3 1012.1
12 14.09 Ю 3 н/о н/о +13.7 +7.0 64 +13 +13 1022.2 1011.0
13 14.09 Ю 3-5
{6}
н/о н/о +13.8 +7.4 65 +13 +13 1021.0 1009.8
14 14.09 ЮЗ 4-7
{8}
н/о н/о +13.9 +7.4 65 +13 +13 1019.9 1008.7
15 14.09 ЮЗ 5-8
{8}
н/о н/о +14.4 +6.3 58 +13 +13 1017.9 1006.8
16 14.09 ЮЗ 5-9
{9}
н/о н/о +13.9 +5.3 56 +12 +12 1016.5 1005.4
17 14.09 ЮЗ 4-7
{7}
н/о н/о +13.2 +5.6 60 +12 +12 1015.5 1004.3
18 14.09 Ю 3-5
{9}
н/о н/о +11.5 +7.2 75 +10 +10 1014.7 1003.5
19 14.09 Ю 4-7
{8}
н/о н/о +12.3 +6.4 67 +10 +10 1011.9 1000.7
20 14.09 Ю 4-8
{9}
н/о н/о +11.7 +6.8 72 +10 +10 1010.6 999.4
21 14.09 Ю 5-8
{9}
н/о н/о +11.6 +7.3 75 +9 +9 1008.3 997.2
22 14.09 Ю 3-5
{8}
н/о н/о +11.4 +8.4 82 +10 +10 1007.3 996.2 0.1
23 14.09 Ю 2-4
{5}
н/о н/о +11.1 +9.2 88 +10 +10 1005.6 994.5 0.3
00 15.09 СЗ 2-3
{9}
н/о н/о +10.6 +9.2 91 +9 +9 1004.9 993.8 0.9
01 15.09 ЮЗ 1-3
{3}
н/о н/о +10.1 +8.9 92 +10 +10 1004.3 993.1 1
02 15.09 ЮЗ 2-5
{5}
н/о н/о +10.5 +7.6 82 +9 +9 1003.0 991.9 0.1
03 15.09 Ю 2-5
{6}
н/о н/о +10.0 +7.4 84 +8 +8 1001.5 990.4
04 15.09 З 3-6
{6}
н/о н/о +10.0 +5.0 71 +8 +8 1000.9 989.8
05 15.09 В 1-2
{5}
н/о н/о +7.9 +4.7 80 +7 +7 1000.9 989.7
06 15.09 З 4-9
{9}
н/о н/о +9.6 +4.6 71 +7 +7 1000.3 989.2 +6.7 +12.3 2
07 15.09 З 3-8
{13}
н/о н/о +11.3 +3.4 58 +10 +10 1000.1 989.0
08 15.09 СЗ 5-9
{13}
н/о н/о +12.3 +2.5 51 +10 +10 1000.0 989.0
09 15.09 З 5-12
{12}
н/о н/о +13.3 +2.0 46 +12 +12 1000.1 989.1
10 15.09 З 7-19
{19}
н/о н/о +13.4 +0.8 42 +11 +11 999.9 988.9
11 15.09 З 5-11
{19}
н/о н/о +14.4 +2.0 43 +13 +13 999.0 988.1
12 15.09 З 6-13
{20}
н/о н/о +15.0 +2.6 43 +14 +14 998.2 987.3
13 15.09 З 8-15
{17}
н/о н/о +15.9 +2.7 41 +14 +14 997.9 987.0
14 15.09 З 6-12
{18}
н/о н/о +16.1 +3.2 42 +15 +15 997.6 986.7
15 15.09 З 4-11
{16}
н/о н/о +15.8 +2.9 42 +15 +15 998.0 987.1
16 15.09 СЗ 4-10
{14}
н/о н/о +15.1 +2.6 43 +14 +14 998.9 988.0
17 15.09 З 5-10
{15}
н/о н/о +14.2 +3.1 47 +13 +13 999.4 988.5
18 15.09 З 4-9
{18}
н/о н/о +13.2 +2.5 48 +12 +12 1000.4 989.4 +9.7 +16.3
19 15.09 З 5-10
{12}
н/о н/о +12.9 +1.9 47 +11 +11 1001.2 990.2
20 15.09 З 6-10
{12}
н/о н/о +12.5 +1.5 47 +10 +10 1001.8 990.8
21 15.09 СЗ 7-12
{16}
н/о н/о +12.2 +0.3 44 +10 +10 1002.6 991.5
22 15.09 З 7-12
{16}
н/о н/о +11.7 -0.4 43 +9 +9 1003.6 992.5
23 15.09 СЗ 4-7
{11}
н/о н/о +10.4 -1.6 43 +8 +8 1004.8 993.7

 

Местоположение метеостанции Гварв (Норвегия): широта 59.38 долгота 9.21 высота над уровнем моря 93 м.

В архиве по умолчанию представлена погода во Гварве за последнюю неделю. Архивные данные за месяц целиком и за предыдущие месяцы, начиная с января 2011 года, Вы можете получить, выбрав интересующий диапазон дат из раскрывающегося списка и нажав кнопку "Ввод!".


*Определитесь, кто Вы:
робот инопланетянин человек

Внимание! Время в таблицах - всемирное. Для получения местного времени необходимо прибавить поправку, которая равна 1 ч.

Смотрите также архив погоды в соседних городах и на ближайших метеорологических станциях:

Погода в Конгсберг Браннстас (Норвегия) (36 км)
Погода в Порсгрунне (Норвегия) (41 км)
Погода в Твейтсунде (Норвегия) (55 км)
Погода в Гьерстаде (Норвегия) (58 км)
Погода в Хойдалсмо (Норвегия) (59 км)
Погода на Гаустатоппене (Норвегия) (61 км)
Погода в Йомфрулянде (Норвегия) (61 км)
Погода в Санде-Галлеберге (Норвегия) (63 км)
Погода в Коннеруде (Норвегия) (64 км)
Погода в Драммен Берског (Норвегия) (66 км)

Пояснения к столбцам:

Ветер - указаны скорость ветра в м/с - средняя за 10 мин, порывы в срок и между сроками (в фигурных скобках) и направление, откуда дует ветер: С - северный, СВ - северо-восточный, В - восточный, ЮВ - юго-восточный, Ю - южный, ЮЗ - юго-западный, З - западный, СЗ - северо-западный.
Видимость - горизонтальная дальность видимости в метрах или километрах. При видимости от 1 до 10 км при отсутствии осадков обычно наблюдается дымка, при ухудшении видимости до 1 км и менее - туман. В сухую погоду видимость может ухудшаться дымом, пылью или мглою.
Явления - указаны атмосферные явления, наблюдавшиеся в срок или в последний час перед сроком; фигурными скобками обозначены явления, наблюдавшиеся между сроками (за 1-3 часа до срока); квадратными скобками обозначены град или гололедные отложения с указанием их диаметра в мм.
Облачность - указаны через наклонную черту общая и нижняя облачность в баллах и высота нижней границы облаков в метрах; квадратными скобками обозначены формы облаков: Ci - перистые, Cs - перисто-слоистые, Cc - перисто-кучевые, Ac - высококучевые, As - высокослоистые, Sc - слоисто-кучевые, Ns - слоисто-дождевые, Cu - кучевые, Cb - кучево-дождевые. Подробнее классификацию облаков см. в Атласе облаков (PDF).
T - Температура воздуха - температура, измеренная на высоте 2 м над землей.
Td - Температура точки росы - температура, при понижении до которой содержащийся в воздухе водяной пар достигнет насыщения.
f - Относительная влажность воздуха - влажноcть воздуха, измеренная на высоте 2 м над землей.
Te - Эффективная температура - температура, которую ощущает одетый по сезону человек в тени. Характеристика душности погоды. При расчете учитывается влияние влажности воздуха и скорости ветра на теплоощущения человека.
Tes - Эффективная температура на солнце - температура, которую ощущает человек, с поправкой на солнечный нагрев. Характеристика знойности погоды. Зависит от высоты солнца над горизонтом, облачности и скорости ветра. Ночью, в пасмурную погоду, а также при ветре 12 м/с и более поправка равна нулю.
P - Атмосферное давление - приведенное к уровню моря атмосферное давление.
Po - Атмосферное давление - измеренное на уровне метеостанции атмосферное давление.
Tmin - Минимальная температура - минимум температуры воздуха на высоте 2 м над землей.
Tmax - Максимальная температура - максимум температуры воздуха на высоте 2 м над землей.
R - Количество осадков - Количество выпавших осадков за период времени, мм. При наведении курсора мыши на число - период времени, за который выпало указанное количество осадков.
R24 - Количество осадков - Количество выпавших осадков за 24 часа, мм.
S - Снежный покров - Высота снежного покрова, см. При наведении курсора мыши на число - состояние снежного покрова и степень покрытия местности в баллах.